Project,Study,Ord_Occ,Event_Num,Date_Time_UTC,Date_Time_PST,Lat_Dec,Lon_Dec,Sta_ID,Line,Sta,Depth,Pressure,Temp0,Temp1,Salt0,CorrSalt0,Salt1,CorrSalt1,O2ml/L,AveCorrO2ml/L,StaCorrO2ml/L,FluorV,AveEstChl,StaEstChl,ISUSV,AveEstNO3,StaEstNO3,SigThetaTS0,SigThetaTS1,BAT,XMiss,SPAR,PAR,BTL_Depth,BTL_Temp,BTL_Salt,BTL_O2ml/L,BTL_Chl,BTL_Pha,BTL_NO3
CalCOFI,0701JD,055,550,26-Jan-2007 1:51:34 AM,25-Jan-2007 5:51:34 PM,32.91248,-122.12618,083.3 080.0,083.3,080.0,513.000,517.285,6.0387,6.0402,34.2771,34.2758,34.2749,34.2750,0.37224,0.42,0.46,0.0251,,,1.7440,40.70,38.337,26.9823,26.9803,0.3999,90.4856,3.6906e+00,9.9990e+03,514,6.04 ,34.276,  .38,,,39.9
CalCOFI,0701JD,055,550,26-Jan-2007 1:51:40 AM,25-Jan-2007 5:51:40 PM,32.91248,-122.12618,083.3 080.0,083.3,080.0,512.000,516.275,6.0496,6.0494,34.2789,34.2776,34.2763,34.2764,0.36951,0.42,0.46,0.0251,,,1.7288,40.26,37.867,26.9822,26.9803,0.4002,90.4787,4.0106e+00,9.9990e+03,,,,,,,
CalCOFI,0701JD,055,550,26-Jan-2007 1:51:42 AM,25-Jan-2007 5:51:42 PM,32.91248,-122.12618,083.3 080.0,083.3,080.0,511.000,515.265,6.0549,6.0553,34.2792,34.2779,34.2769,34.2770,0.36887,0.42,0.46,0.0250,,,1.7481,40.82,38.464,26.9818,26.9800,0.4000,90.4839,3.6685e+00,9.9990e+03,,,,,,,
CalCOFI,0701JD,055,550,26-Jan-2007 1:51:44 AM,25-Jan-2007 5:51:44 PM,32.91248,-122.12618,083.3 080.0,083.3,080.0,510.000,514.256,6.0571,6.0577,34.2783,34.2770,34.2763,34.2764,0.36993,0.42,0.46,0.0254,,,1.7494,40.86,38.504,26.9808,26.9792,0.3997,90.4895,4.0421e+00,9.9990e+03,,,,,,,
CalCOFI,0701JD,055,550,26-Jan-2007 1:51:46 AM,25-Jan-2007 5:51:46 PM,32.91248,-122.12618,083.3 080.0,083.3,080.0,509.000,513.246,6.0560,6.0565,34.2772,34.2759,34.2753,34.2754,0.37066,0.42,0.46,0.0251,,,1.7610,41.20,38.862,26.9801,26.9785,0.4003,90.4753,3.6397e+00,9.9990e+03,,,,,,,
CalCOFI,0701JD,055,550,26-Jan-2007 1:51:47 AM,25-Jan-2007 5:51:47 PM,32.91248,-122.12618,083.3 080.0,083.3,080.0,508.000,512.237,6.0548,6.0553,34.2768,34.2755,34.2749,34.2750,0.37156,0.42,0.46,0.0249,,,1.7507,40.90,38.544,26.9799,26.9783,0.4008,90.4645,3.8405e+00,9.9990e+03,,,,,,,
CalCOFI,0701JD,055,550,26-Jan-2007 1:51:49 AM,25-Jan-2007 5:51:49 PM,32.91248,-122.12618,083.3 080.0,083.3,080.0,507.000,511.227,6.0533,6.0540,34.2765,34.2752,34.2744,34.2745,0.37265,0.42,0.46,0.0250,,,1.7358,40.46,38.083,26.9798,26.9781,0.4002,90.4790,3.8397e+00,9.9990e+03,,,,,,,
CalCOFI,0701JD,055,550,26-Jan-2007 1:51:50 AM,25-Jan-2007 5:51:50 PM,32.91248,-122.12618,083.3 080.0,083.3,080.0,506.000,510.217,6.0496,6.0508,34.2749,34.2736,34.2735,34.2736,0.37365,0.42,0.46,0.0251,,,1.7078,39.64,37.218,26.9790,26.9777,0.3997,90.4886,4.0328e+00,9.9990e+03,,,,,,,
CalCOFI,0701JD,055,550,26-Jan-2007 1:51:51 AM,25-Jan-2007 5:51:51 PM,32.91248,-122.12618,083.3 080.0,083.3,080.0,505.000,509.208,6.0512,6.0516,34.2735,34.2722,34.2715,34.2716,0.37508,0.42,0.47,0.0247,,,-0.0051,0.00,-99,26.9777,26.9761,0.4001,90.4811,3.9162e+00,9.9990e+03,,,,,,,
CalCOFI,0701JD,055,550,26-Jan-2007 1:51:52 AM,25-Jan-2007 5:51:52 PM,32.91248,-122.12618,083.3 080.0,083.3,080.0,504.000,508.198,6.0529,6.0537,34.2728,34.2715,34.2707,34.2708,0.37602,0.42,0.47,0.0253,,,0.0000,0.00,-99,26.9769,26.9752,0.4001,90.4809,3.4678e+00,9.9990e+03,,,,,,,
CalCOFI,0701JD,055,550,26-Jan-2007 1:51:53 AM,25-Jan-2007 5:51:53 PM,32.91248,-122.12618,083.3 080.0,083.3,080.0,503.000,507.189,6.0551,6.0556,34.2728,34.2715,34.2707,34.2708,0.37656,0.42,0.47,0.0248,,,0.0000,0.00,-99,26.9767,26.9749,0.3999,90.4857,3.9111e+00,9.9990e+03,,,,,,,
CalCOFI,0701JD,055,550,26-Jan-2007 1:51:54 AM,25-Jan-2007 5:51:54 PM,32.91248,-122.12618,083.3 080.0,083.3,080.0,502.000,506.179,6.0573,6.0580,34.2728,34.2715,34.2708,34.2709,0.37824,0.43,0.47,0.0250,,,0.0000,0.00,-99,26.9764,26.9747,0.4011,90.4591,3.4714e+00,9.9990e+03,,,,,,,
CalCOFI,0701JD,055,550,26-Jan-2007 1:51:55 AM,25-Jan-2007 5:51:55 PM,32.91248,-122.12618,083.3 080.0,083.3,080.0,501.000,505.170,6.0551,6.0561,34.2721,34.2708,34.2702,34.2703,0.37858,0.43,0.47,0.0249,,,0.0000,0.00,-99,26.9760,26.9744,0.3999,90.4853,4.1641e+00,9.9990e+03,,,,,,,
CalCOFI,0701JD,055,550,26-Jan-2007 1:51:57 AM,25-Jan-2007 5:51:57 PM,32.91248,-122.12618,083.3 080.0,083.3,080.0,500.000,504.160,6.0513,6.0523,34.2712,34.2699,34.2693,34.2694,0.37969,0.43,0.47,0.0249,,,0.0000,0.00,-99,26.9759,26.9742,0.3998,90.4868,3.7550e+00,9.9990e+03,,,,,,,
CalCOFI,0701JD,055,550,26-Jan-2007 1:51:58 AM,25-Jan-2007 5:51:58 PM,32.91248,-122.12618,083.3 080.0,083.3,080.0,499.000,503.151,6.0525,6.0528,34.2709,34.2696,34.2689,34.2690,0.38090,0.43,0.47,0.0247,,,0.0000,0.00,-99,26.9755,26.9738,0.4000,90.4824,3.9973e+00,9.9990e+03,,,,,,,
CalCOFI,0701JD,055,550,26-Jan-2007 1:52:00 AM,25-Jan-2007 5:52:00 PM,32.91248,-122.12618,083.3 080.0,083.3,080.0,498.000,502.141,6.0490,6.0501,34.2692,34.2679,34.2678,34.2679,0.38426,0.43,0.48,0.0257,,,0.0000,0.00,-99,26.9745,26.9733,0.3995,90.4937,3.6535e+00,9.9990e+03,,,,,,,
CalCOFI,0701JD,055,550,26-Jan-2007 1:52:01 AM,25-Jan-2007 5:52:01 PM,32.91248,-122.12618,083.3 080.0,083.3,080.0,497.000,501.132,6.0365,6.0374,34.2651,34.2638,34.2636,34.2637,0.39123,0.44,0.49,0.0253,,,0.0000,0.00,-99,26.9728,26.9715,0.3997,90.4889,3.9091e+00,9.9990e+03,,,,,,,
CalCOFI,0701JD,055,550,26-Jan-2007 1:52:02 AM,25-Jan-2007 5:52:02 PM,32.91248,-122.12618,083.3 080.0,083.3,080.0,496.000,500.122,6.0480,6.0485,34.2608,34.2595,34.2584,34.2585,0.40221,0.46,0.50,0.0253,,,0.0000,0.00,-99,26.9680,26.9660,0.3997,90.4902,4.1745e+00,9.9990e+03,,,,,,,
CalCOFI,0701JD,055,550,26-Jan-2007 1:52:03 AM,25-Jan-2007 5:52:03 PM,32.91248,-122.12618,083.3 080.0,083.3,080.0,495.000,499.112,6.0173,6.0208,34.2493,34.2480,34.2510,34.2511,0.41308,0.47,0.51,0.0247,,,0.0000,0.00,-99,26.9627,26.9636,0.3997,90.4905,4.3465e+00,9.9990e+03,,,,,,,
CalCOFI,0701JD,055,550,26-Jan-2007 1:52:04 AM,25-Jan-2007 5:52:04 PM,32.91248,-122.12618,083.3 080.0,083.3,080.0,494.000,498.103,5.9439,5.9489,34.2325,34.2312,34.2358,34.2359,0.42380,0.48,0.53,0.0247,,,0.0000,0.00,-99,26.9586,26.9606,0.4004,90.4746,4.0489e+00,9.9990e+03,,,,,,,
CalCOFI,0701JD,055,550,26-Jan-2007 1:52:05 AM,25-Jan-2007 5:52:05 PM,32.91248,-122.12618,083.3 080.0,083.3,080.0,493.000,497.093,5.9105,5.9156,34.2286,34.2273,34.2273,34.2274,0.43075,0.49,0.53,0.0253,,,0.0000,0.00,-99,26.9597,26.9581,0.4001,90.4806,3.4944e+00,9.9990e+03,,,,,,,
CalCOFI,0701JD,055,550,26-Jan-2007 1:52:05 AM,25-Jan-2007 5:52:05 PM,32.91248,-122.12618,083.3 080.0,083.3,080.0,492.000,496.084,5.9112,5.9107,34.2243,34.2230,34.2152,34.2153,0.43714,0.50,0.54,0.0250,,,0.0000,0.00,-99,26.9562,26.9491,0.3994,90.4970,3.9410e+00,9.9990e+03,,,,,,,
CalCOFI,0701JD,055,550,26-Jan-2007 1:52:06 AM,25-Jan-2007 5:52:06 PM,32.91248,-122.12618,083.3 080.0,083.3,080.0,491.000,495.074,5.9100,5.9106,34.2242,34.2229,34.2217,34.2218,0.44319,0.51,0.55,0.0252,,,0.0000,0.00,-99,26.9563,26.9542,0.3997,90.4902,4.2551e+00,9.9990e+03,,,,,,,
CalCOFI,0701JD,055,550,26-Jan-2007 1:52:08 AM,25-Jan-2007 5:52:08 PM,32.91248,-122.12618,083.3 080.0,083.3,080.0,490.000,494.065,5.9125,5.9120,34.2246,34.2233,34.2222,34.2223,0.45044,0.51,0.56,0.0249,,,0.0000,0.00,-99,26.9562,26.9544,0.4032,90.4111,3.9966e+00,9.9990e+03,,,,,,,
CalCOFI,0701JD,055,550,26-Jan-2007 1:52:10 AM,25-Jan-2007 5:52:10 PM,32.91248,-122.12618,083.3 080.0,083.3,080.0,489.000,493.055,5.9124,5.9119,34.2247,34.2234,34.2224,34.2225,0.45559,0.52,0.56,0.0245,,,0.0000,0.00,-99,26.9564,26.9546,0.3998,90.4885,3.8328e+00,9.9990e+03,,,,,,,
CalCOFI,0701JD,055,550,26-Jan-2007 1:52:11 AM,25-Jan-2007 5:52:11 PM,32.91248,-122.12618,083.3 080.0,083.3,080.0,488.000,492.046,5.9169,5.9182,34.2256,34.2243,34.2236,34.2237,0.45597,0.52,0.56,0.0254,,,0.0000,0.00,-99,26.9565,26.9547,0.3992,90.4999,4.0158e+00,9.9990e+03,,,,,,,
CalCOFI,0701JD,055,550,26-Jan-2007 1:52:12 AM,25-Jan-2007 5:52:12 PM,32.91248,-122.12618,083.3 080.0,083.3,080.0,487.000,491.036,5.9244,5.9249,34.2270,34.2257,34.2244,34.2245,0.45518,0.52,0.56,0.0245,,,0.0000,0.00,-99,26.9566,26.9545,0.3994,90.4957,4.3429e+00,9.9990e+03,,,,,,,
CalCOFI,0701JD,055,550,26-Jan-2007 1:52:12 AM,25-Jan-2007 5:52:12 PM,32.91248,-122.12618,083.3 080.0,083.3,080.0,486.000,490.027,5.9457,5.9430,34.2317,34.2304,34.2267,34.2268,0.45370,0.52,0.56,0.0243,,,0.0000,0.00,-99,26.9576,26.9541,0.3997,90.4892,3.9398e+00,9.9990e+03,,,,,,,
CalCOFI,0701JD,055,550,26-Jan-2007 1:52:13 AM,25-Jan-2007 5:52:13 PM,32.91248,-122.12618,083.3 080.0,083.3,080.0,485.000,489.017,5.9953,5.9943,34.2369,34.2356,34.2327,34.2328,0.45146,0.52,0.56,0.0248,,,0.0000,0.00,-99,26.9555,26.9524,0.3997,90.4891,4.0242e+00,9.9990e+03,,,,,,,
CalCOFI,0701JD,055,550,26-Jan-2007 1:52:14 AM,25-Jan-2007 5:52:14 PM,32.91248,-122.12618,083.3 080.0,083.3,080.0,484.000,488.008,6.0304,6.0284,34.2414,34.2401,34.2371,34.2372,0.44766,0.51,0.55,0.0247,,,0.0000,0.00,-99,26.9547,26.9516,0.3995,90.4941,4.0143e+00,9.9990e+03,,,,,,,
CalCOFI,0701JD,055,550,26-Jan-2007 1:52:15 AM,25-Jan-2007 5:52:15 PM,32.91248,-122.12618,083.3 080.0,083.3,080.0,483.000,486.999,6.0699,6.0667,34.2455,34.2442,34.2420,34.2421,0.44622,0.51,0.55,0.0249,,,0.0000,0.00,-99,26.9529,26.9506,0.3997,90.4892,3.8422e+00,9.9990e+03,,,,,,,
CalCOFI,0701JD,055,550,26-Jan-2007 1:52:16 AM,25-Jan-2007 5:52:16 PM,32.91248,-122.12618,083.3 080.0,083.3,080.0,482.000,485.989,6.0811,6.0815,34.2461,34.2448,34.2440,34.2441,0.44557,0.51,0.55,0.0249,,,0.0000,0.00,-99,26.9520,26.9503,0.3998,90.4880,3.3498e+00,9.9990e+03,,,,,,,
CalCOFI,0701JD,055,550,26-Jan-2007 1:52:17 AM,25-Jan-2007 5:52:17 PM,32.91248,-122.12612,083.3 080.0,083.3,080.0,481.000,484.980,6.0812,6.0818,34.2457,34.2444,34.2440,34.2441,0.44731,0.51,0.55,0.0250,,,0.0000,0.00,-99,26.9517,26.9503,0.3997,90.4906,3.9170e+00,9.9990e+03,,,,,,,
CalCOFI,0701JD,055,550,26-Jan-2007 1:52:18 AM,25-Jan-2007 5:52:18 PM,32.91248,-122.12600,083.3 080.0,083.3,080.0,480.000,483.970,6.0675,6.0696,34.2399,34.2386,34.2396,34.2397,0.44936,0.51,0.56,0.0247,,,0.0000,0.00,-99,26.9488,26.9483,0.3996,90.4927,3.8388e+00,9.9990e+03,,,,,,,
CalCOFI,0701JD,055,550,26-Jan-2007 1:52:19 AM,25-Jan-2007 5:52:19 PM,32.91248,-122.12600,083.3 080.0,083.3,080.0,479.000,482.961,6.0882,6.0811,34.2443,34.2430,34.2392,34.2393,0.44726,0.51,0.55,0.0248,,,0.0000,0.00,-99,26.9497,26.9465,0.3996,90.4930,3.9910e+00,9.9990e+03,,,,,,,
CalCOFI,0701JD,055,550,26-Jan-2007 1:52:20 AM,25-Jan-2007 5:52:20 PM,32.91248,-122.12600,083.3 080.0,083.3,080.0,478.000,481.951,6.1640,6.1567,34.2499,34.2486,34.2450,34.2451,0.44638,0.51,0.55,0.0248,,,0.0000,0.00,-99,26.9444,26.9415,0.3995,90.4937,3.8440e+00,9.9990e+03,,,,,,,
CalCOFI,0701JD,055,550,26-Jan-2007 1:52:21 AM,25-Jan-2007 5:52:21 PM,32.91248,-122.12600,083.3 080.0,083.3,080.0,477.000,480.942,6.2060,6.2037,34.2530,34.2517,34.2496,34.2497,0.44292,0.51,0.55,0.0243,,,0.0000,0.00,-99,26.9416,26.9391,0.3994,90.4957,4.0954e+00,9.9990e+03,,,,,,,
CalCOFI,0701JD,055,550,26-Jan-2007 1:52:23 AM,25-Jan-2007 5:52:23 PM,32.91248,-122.12600,083.3 080.0,083.3,080.0,476.000,479.932,6.2329,6.2169,34.2544,34.2531,34.2507,34.2508,0.43985,0.50,0.55,0.0247,,,0.0000,0.00,-99,26.9392,26.9383,0.3998,90.4884,3.8327e+00,9.9990e+03,,,,,,,
CalCOFI,0701JD,055,550,26-Jan-2007 1:52:24 AM,25-Jan-2007 5:52:24 PM,32.91248,-122.12600,083.3 080.0,083.3,080.0,475.000,478.923,6.2775,6.2801,34.2613,34.2600,34.2573,34.2574,0.43777,0.50,0.54,0.0244,,,0.0000,0.00,-99,26.9389,26.9354,0.4002,90.4780,3.8397e+00,9.9990e+03,,,,,,,
CalCOFI,0701JD,055,550,26-Jan-2007 1:52:25 AM,25-Jan-2007 5:52:25 PM,32.91248,-122.12600,083.3 080.0,083.3,080.0,474.000,477.914,6.2984,6.3003,34.2611,34.2598,34.2590,34.2591,0.43684,0.50,0.54,0.0250,,,0.0000,0.00,-99,26.9361,26.9341,0.4011,90.4579,3.6373e+00,9.9990e+03,,,,,,,
CalCOFI,0701JD,055,550,26-Jan-2007 1:52:26 AM,25-Jan-2007 5:52:26 PM,32.91248,-122.12600,083.3 080.0,083.3,080.0,473.000,476.904,6.3032,6.3042,34.2606,34.2593,34.2591,34.2592,0.43635,0.50,0.54,0.0248,,,0.0000,0.00,-99,26.9350,26.9337,0.4000,90.4840,3.8404e+00,9.9990e+03,,,,,,,
CalCOFI,0701JD,055,550,26-Jan-2007 1:52:26 AM,25-Jan-2007 5:52:26 PM,32.91248,-122.12600,083.3 080.0,083.3,080.0,472.000,475.895,6.3233,6.3229,34.2632,34.2619,34.2604,34.2605,0.43726,0.50,0.54,0.0250,,,0.0000,0.00,-99,26.9345,26.9323,0.4002,90.4791,3.8397e+00,9.9990e+03,,,,,,,
CalCOFI,0701JD,055,550,26-Jan-2007 1:52:27 AM,25-Jan-2007 5:52:27 PM,32.91248,-122.12600,083.3 080.0,083.3,080.0,471.000,474.885,6.3380,6.3382,34.2627,34.2614,34.2610,34.2611,0.43682,0.50,0.54,0.0243,,,0.0000,0.00,-99,26.9321,26.9308,0.4012,90.4565,4.4775e+00,9.9990e+03,,,,,,,
CalCOFI,0701JD,055,550,26-Jan-2007 1:52:28 AM,25-Jan-2007 5:52:28 PM,32.91248,-122.12600,083.3 080.0,083.3,080.0,470.000,473.876,6.3408,6.3412,34.2607,34.2594,34.2597,34.2598,0.43830,0.50,0.54,0.0245,,,0.0000,0.00,-99,26.9302,26.9294,0.4006,90.4701,3.4734e+00,9.9990e+03,,,,,,,
CalCOFI,0701JD,055,550,26-Jan-2007 1:52:28 AM,25-Jan-2007 5:52:28 PM,32.91248,-122.12600,083.3 080.0,083.3,080.0,469.000,472.867,6.3399,6.3404,34.2598,34.2585,34.2584,34.2585,0.43871,0.50,0.54,0.0246,,,0.0000,0.00,-99,26.9296,26.9284,0.4009,90.4632,3.9453e+00,9.9990e+03,,,,,,,
CalCOFI,0701JD,055,550,26-Jan-2007 1:52:29 AM,25-Jan-2007 5:52:29 PM,32.91248,-122.12600,083.3 080.0,083.3,080.0,468.000,471.857,6.3396,6.3402,34.2593,34.2580,34.2580,34.2581,0.43927,0.50,0.54,0.0253,,,0.0000,0.00,-99,26.9292,26.9281,0.4004,90.4735,4.5947e+00,9.9990e+03,,,,,,,
CalCOFI,0701JD,055,550,26-Jan-2007 1:52:31 AM,25-Jan-2007 5:52:31 PM,32.91248,-122.12600,083.3 080.0,083.3,080.0,467.000,470.848,6.3358,6.3374,34.2597,34.2584,34.2580,34.2581,0.43938,0.50,0.54,0.0251,,,0.0000,0.00,-99,26.9300,26.9285,0.4003,90.4757,4.0115e+00,9.9990e+03,,,,,,,
CalCOFI,0701JD,055,550,26-Jan-2007 1:52:33 AM,25-Jan-2007 5:52:33 PM,32.91248,-122.12600,083.3 080.0,083.3,080.0,466.000,469.838,6.3357,6.3379,34.2593,34.2580,34.2569,34.2570,0.44468,0.51,0.55,0.0249,,,0.0000,0.00,-99,26.9297,26.9275,0.4003,90.4754,3.8968e+00,9.9990e+03,,,,,,,
CalCOFI,0701JD,055,550,26-Jan-2007 1:52:34 AM,25-Jan-2007 5:52:34 PM,32.91248,-122.12600,083.3 080.0,083.3,080.0,465.000,468.829,6.3439,6.3448,34.2550,34.2537,34.2536,34.2537,0.44879,0.51,0.56,0.0249,,,0.0000,0.00,-99,26.9252,26.9240,0.3999,90.4852,3.9168e+00,9.9990e+03,,,,,,,
CalCOFI,0701JD,055,550,26-Jan-2007 1:52:35 AM,25-Jan-2007 5:52:35 PM,32.91248,-122.12600,083.3 080.0,083.3,080.0,464.000,467.820,6.3406,6.3411,34.2530,34.2517,34.2514,34.2515,0.45000,0.51,0.56,0.0247,,,0.0000,0.00,-99,26.9241,26.9227,0.4002,90.4781,4.0823e+00,9.9990e+03,,,,,,,
CalCOFI,0701JD,055,550,26-Jan-2007 1:52:36 AM,25-Jan-2007 5:52:36 PM,32.91248,-122.12600,083.3 080.0,083.3,080.0,463.000,466.810,6.3345,6.3310,34.2508,34.2495,34.2494,34.2495,0.44935,0.51,0.56,0.0247,,,0.0000,0.00,-99,26.9231,26.9225,0.4004,90.4739,3.9239e+00,9.9990e+03,,,,,,,
CalCOFI,0701JD,055,550,26-Jan-2007 1:52:36 AM,25-Jan-2007 5:52:36 PM,32.91248,-122.12600,083.3 080.0,083.3,080.0,462.000,465.801,6.3850,6.3893,34.2634,34.2621,34.2566,34.2567,0.44603,0.51,0.55,0.0251,,,0.0000,0.00,-99,26.9265,26.9206,0.4000,90.4832,3.8382e+00,9.9990e+03,,,,,,,
CalCOFI,0701JD,055,550,26-Jan-2007 1:52:37 AM,25-Jan-2007 5:52:37 PM,32.91248,-122.12600,083.3 080.0,083.3,080.0,461.000,464.792,6.4484,6.4499,34.2673,34.2660,34.2647,34.2648,0.44539,0.51,0.55,0.0249,,,0.0000,0.00,-99,26.9214,26.9191,0.4002,90.4790,3.7337e+00,9.9990e+03,,,,,,,
CalCOFI,0701JD,055,550,26-Jan-2007 1:52:38 AM,25-Jan-2007 5:52:38 PM,32.91248,-122.12600,083.3 080.0,083.3,080.0,460.000,463.782,6.4587,6.4590,34.2668,34.2655,34.2651,34.2652,0.44454,0.51,0.55,0.0249,,,0.0000,0.00,-99,26.9195,26.9182,0.3999,90.4843,3.6284e+00,9.9990e+03,,,,,,,
CalCOFI,0701JD,055,550,26-Jan-2007 1:52:39 AM,25-Jan-2007 5:52:39 PM,32.91248,-122.12600,083.3 080.0,083.3,080.0,459.000,462.773,6.4562,6.4566,34.2659,34.2646,34.2648,34.2649,0.44348,0.51,0.55,0.0248,,,0.0000,0.00,-99,26.9192,26.9182,0.4000,90.4822,3.9089e+00,9.9990e+03,,,,,,,
CalCOFI,0701JD,055,550,26-Jan-2007 1:52:40 AM,25-Jan-2007 5:52:40 PM,32.91248,-122.12600,083.3 080.0,083.3,080.0,458.000,461.764,6.4520,6.4522,34.2651,34.2638,34.2639,34.2640,0.45233,0.52,0.56,0.0250,,,0.0000,0.00,-99,26.9191,26.9181,0.3999,90.4842,3.8384e+00,9.9990e+03,,,,,,,
CalCOFI,0701JD,055,550,26-Jan-2007 1:52:41 AM,25-Jan-2007 5:52:41 PM,32.91248,-122.12600,083.3 080.0,083.3,080.0,457.000,460.754,6.4379,6.4388,34.2599,34.2586,34.2605,34.2606,0.47329,0.54,0.59,0.0246,,,0.0000,0.00,-99,26.9168,26.9172,0.3999,90.4844,4.0850e+00,9.9990e+03,,,,,,,
CalCOFI,0701JD,055,550,26-Jan-2007 1:52:42 AM,25-Jan-2007 5:52:42 PM,32.91248,-122.12600,083.3 080.0,083.3,080.0,456.000,459.745,6.2622,6.2616,34.2163,34.2150,34.2257,34.2258,0.49340,0.57,0.61,0.0245,,,0.0000,0.00,-99,26.9051,26.9126,0.3998,90.4880,4.0902e+00,9.9990e+03,,,,,,,
CalCOFI,0701JD,055,550,26-Jan-2007 1:52:43 AM,25-Jan-2007 5:52:43 PM,32.91248,-122.12600,083.3 080.0,083.3,080.0,455.000,458.736,6.1564,6.1611,34.2040,34.2027,34.2045,34.2046,0.51087,0.59,0.63,0.0248,,,0.0000,0.00,-99,26.9089,26.9087,0.4000,90.4837,4.2835e+00,9.9990e+03,,,,,,,
CalCOFI,0701JD,055,550,26-Jan-2007 1:52:44 AM,25-Jan-2007 5:52:44 PM,32.91248,-122.12600,083.3 080.0,083.3,080.0,454.000,457.726,6.1447,6.1470,34.2015,34.2002,34.2002,34.2003,0.53161,0.61,0.66,0.0248,,,0.0000,0.00,-99,26.9084,26.9071,0.4000,90.4819,3.9536e+00,9.9990e+03,,,,,,,
CalCOFI,0701JD,055,550,26-Jan-2007 1:52:45 AM,25-Jan-2007 5:52:45 PM,32.91248,-122.12600,083.3 080.0,083.3,080.0,453.000,456.717,6.1281,6.1265,34.1945,34.1932,34.1960,34.1961,0.54673,0.63,0.68,0.0248,,,0.0000,0.00,-99,26.9049,26.9064,0.4001,90.4816,4.0926e+00,9.9990e+03,,,,,,,
CalCOFI,0701JD,055,550,26-Jan-2007 1:52:46 AM,25-Jan-2007 5:52:46 PM,32.91248,-122.12600,083.3 080.0,083.3,080.0,452.000,455.708,6.0679,6.0631,34.1834,34.1821,34.1820,34.1821,0.55831,0.65,0.69,0.0249,,,0.0000,0.00,-99,26.9038,26.9033,0.4013,90.4541,4.1428e+00,9.9990e+03,,,,,,,
CalCOFI,0701JD,055,550,26-Jan-2007 1:52:47 AM,25-Jan-2007 5:52:47 PM,32.91248,-122.12600,083.3 080.0,083.3,080.0,451.000,454.698,6.0829,6.0819,34.1873,34.1860,34.1834,34.1835,0.56561,0.66,0.70,0.0246,,,0.0000,0.00,-99,26.9050,26.9020,0.4001,90.4810,4.1278e+00,9.9990e+03,,,,,,,
CalCOFI,0701JD,055,550,26-Jan-2007 1:52:48 AM,25-Jan-2007 5:52:48 PM,32.91248,-122.12600,083.3 080.0,083.3,080.0,450.000,453.689,6.0901,6.0898,34.1849,34.1836,34.1837,34.1838,0.57397,0.67,0.71,0.0246,,,0.0000,0.00,-99,26.9022,26.9012,0.4001,90.4807,3.9296e+00,9.9990e+03,,,,,,,
CalCOFI,0701JD,055,550,26-Jan-2007 1:52:49 AM,25-Jan-2007 5:52:49 PM,32.91248,-122.12600,083.3 080.0,083.3,080.0,449.000,452.680,6.0787,6.0791,34.1831,34.1818,34.1816,34.1817,0.58297,0.68,0.72,0.0247,,,0.0000,0.00,-99,26.9022,26.9009,0.3997,90.4897,4.2755e+00,9.9990e+03,,,,,,,
CalCOFI,0701JD,055,550,26-Jan-2007 1:52:50 AM,25-Jan-2007 5:52:50 PM,32.91248,-122.12600,083.3 080.0,083.3,080.0,448.000,451.670,6.0788,6.0786,34.1828,34.1815,34.1811,34.1812,0.59025,0.69,0.73,0.0247,,,0.0000,0.00,-99,26.9019,26.9006,0.4003,90.4773,4.0210e+00,9.9990e+03,,,,,,,
CalCOFI,0701JD,055,550,26-Jan-2007 1:52:51 AM,25-Jan-2007 5:52:51 PM,32.91248,-122.12600,083.3 080.0,083.3,080.0,447.000,450.661,6.0635,6.0633,34.1792,34.1779,34.1776,34.1777,0.59580,0.69,0.74,0.0244,,,0.0000,0.00,-99,26.9010,26.8998,0.4001,90.4817,4.3580e+00,9.9990e+03,,,,,,,
CalCOFI,0701JD,055,550,26-Jan-2007 1:52:52 AM,25-Jan-2007 5:52:52 PM,32.91248,-122.12600,083.3 080.0,083.3,080.0,446.000,449.652,6.0779,6.0784,34.1816,34.1803,34.1793,34.1794,0.59850,0.70,0.74,0.0247,,,0.0000,0.00,-99,26.9010,26.8991,0.4000,90.4824,3.8534e+00,9.9990e+03,,,,,,,
CalCOFI,0701JD,055,550,26-Jan-2007 1:52:53 AM,25-Jan-2007 5:52:53 PM,32.91248,-122.12600,083.3 080.0,083.3,080.0,445.000,448.643,6.1077,6.1116,34.1864,34.1851,34.1833,34.1834,0.59789,0.69,0.74,0.0246,,,0.0000,0.00,-99,26.9010,26.8981,0.4002,90.4788,4.1022e+00,9.9990e+03,,,,,,,
CalCOFI,0701JD,055,550,26-Jan-2007 1:52:54 AM,25-Jan-2007 5:52:54 PM,32.91248,-122.12600,083.3 080.0,083.3,080.0,444.000,447.633,6.1862,6.1877,34.1968,34.1955,34.1929,34.1930,0.59584,0.69,0.74,0.0246,,,0.0000,0.00,-99,26.8993,26.8960,0.4001,90.4813,4.1717e+00,9.9990e+03,,,,,,,
CalCOFI,0701JD,055,550,26-Jan-2007 1:52:55 AM,25-Jan-2007 5:52:55 PM,32.91248,-122.12600,083.3 080.0,083.3,080.0,443.000,446.624,6.2144,6.2138,34.1997,34.1984,34.1975,34.1976,0.60740,0.71,0.75,0.0249,,,0.0000,0.00,-99,26.8980,26.8963,0.3998,90.4871,4.1466e+00,9.9990e+03,,,,,,,
CalCOFI,0701JD,055,550,26-Jan-2007 1:52:56 AM,25-Jan-2007 5:52:56 PM,32.91248,-122.12600,083.3 080.0,083.3,080.0,442.000,445.615,6.1693,6.1647,34.1831,34.1818,34.1853,34.1854,0.62625,0.73,0.77,0.0249,,,0.0000,0.00,-99,26.8906,26.8929,0.4006,90.4697,3.4022e+00,9.9990e+03,,,,,,,
CalCOFI,0701JD,055,550,26-Jan-2007 1:52:57 AM,25-Jan-2007 5:52:57 PM,32.91248,-122.12600,083.3 080.0,083.3,080.0,441.000,444.605,6.0700,6.0651,34.1600,34.1587,34.1594,34.1595,0.64941,0.76,0.80,0.0244,,,0.0000,0.00,-99,26.8849,26.8851,0.4000,90.4828,4.1619e+00,9.9990e+03,,,,,,,
CalCOFI,0701JD,055,550,26-Jan-2007 1:52:59 AM,25-Jan-2007 5:52:59 PM,32.91248,-122.12600,083.3 080.0,083.3,080.0,440.000,443.596,6.0280,6.0309,34.1517,34.1504,34.1523,34.1524,0.66826,0.78,0.82,0.0246,,,0.0000,0.00,-99,26.8836,26.8838,0.4001,90.4817,4.1958e+00,9.9990e+03,,,,,,,
CalCOFI,0701JD,055,550,26-Jan-2007 1:53:00 AM,25-Jan-2007 5:53:00 PM,32.91248,-122.12600,083.3 080.0,083.3,080.0,439.000,442.587,6.0085,6.0117,34.1482,34.1469,34.1474,34.1475,0.68083,0.80,0.84,0.0244,,,0.0000,0.00,-99,26.8833,26.8823,0.4000,90.4820,3.6961e+00,9.9990e+03,,,,,,,
CalCOFI,0701JD,055,550,26-Jan-2007 1:53:02 AM,25-Jan-2007 5:53:02 PM,32.91248,-122.12600,083.3 080.0,083.3,080.0,438.000,441.578,6.0325,6.0549,34.1545,34.1532,34.1572,34.1573,0.67939,0.79,0.84,0.0245,,,0.0000,0.00,-99,26.8853,26.8846,0.3998,90.4885,3.8063e+00,9.9990e+03,438,6.02 ,34.150,  .82,,,39.0
CalCOFI,0701JD,055,550,26-Jan-2007 1:53:18 AM,25-Jan-2007 5:53:18 PM,32.91248,-122.12600,083.3 080.0,083.3,080.0,437.000,440.569,6.0889,6.1040,34.1711,34.1698,34.1742,34.1743,0.66379,0.78,0.82,0.0244,,,0.0000,0.00,-99,26.8913,26.8918,0.4005,90.4714,3.9769e+00,9.9990e+03,,,,,,,
CalCOFI,0701JD,055,550,26-Jan-2007 1:54:09 AM,25-Jan-2007 5:54:09 PM,32.91248,-122.12600,083.3 080.0,083.3,080.0,436.000,439.559,6.0154,6.0149,34.1488,34.1475,34.1470,34.1471,0.72692,0.85,0.90,0.0247,,,0.0000,0.00,-99,26.8829,26.8816,0.3997,90.4888,4.2333e+00,9.9990e+03,,,,,,,
CalCOFI,0701JD,055,550,26-Jan-2007 1:54:08 AM,25-Jan-2007 5:54:08 PM,32.91248,-122.12600,083.3 080.0,083.3,080.0,435.000,438.550,6.0104,6.0104,34.1474,34.1461,34.1462,34.1463,0.72716,0.85,0.90,0.0246,,,0.0000,0.00,-99,26.8824,26.8814,0.3998,90.4881,4.4989e+00,9.9990e+03,,,,,,,
CalCOFI,0701JD,055,550,26-Jan-2007 1:54:09 AM,25-Jan-2007 5:54:09 PM,32.91248,-122.12600,083.3 080.0,083.3,080.0,434.000,437.541,6.0140,6.0149,34.1470,34.1457,34.1449,34.1450,0.72832,0.85,0.90,-9.990e-29,,,0.0000,0.00,-99,26.8816,26.8799,0.3997,90.4901,4.0890e+00,9.9990e+03,,,,,,,
CalCOFI,0701JD,055,550,26-Jan-2007 1:54:11 AM,25-Jan-2007 5:54:11 PM,32.91248,-122.12600,083.3 080.0,083.3,080.0,433.000,436.532,6.0386,6.0372,34.1506,34.1493,34.1474,34.1475,0.72705,0.85,0.90,-9.990e-29,,,0.0000,0.00,-99,26.8813,26.8790,0.4013,90.4547,4.0037e+00,9.9990e+03,,,,,,,
CalCOFI,0701JD,055,550,26-Jan-2007 1:54:12 AM,25-Jan-2007 5:54:12 PM,32.91248,-122.12600,083.3 080.0,083.3,080.0,432.000,435.522,6.0661,6.0674,34.1537,34.1524,34.1516,34.1517,0.72464,0.85,0.89,-9.990e-29,,,0.0000,0.00,-99,26.8803,26.8785,0.4019,90.4398,4.2536e+00,9.9990e+03,,,,,,,
CalCOFI,0701JD,055,550,26-Jan-2007 1:54:13 AM,25-Jan-2007 5:54:13 PM,32.91248,-122.12600,083.3 080.0,083.3,080.0,431.000,434.513,6.0893,6.0915,34.1568,34.1555,34.1542,34.1543,0.72398,0.85,0.89,-9.990e-29,,,0.0000,0.00,-99,26.8798,26.8775,0.4004,90.4745,4.3198e+00,9.9990e+03,,,,,,,
CalCOFI,0701JD,055,550,26-Jan-2007 1:54:14 AM,25-Jan-2007 5:54:14 PM,32.91248,-122.12600,083.3 080.0,083.3,080.0,430.000,433.504,6.1148,6.1136,34.1579,34.1566,34.1559,34.1560,0.72536,0.85,0.89,-9.990e-29,,,0.0000,0.00,-99,26.8775,26.8760,0.4006,90.4702,3.7593e+00,9.9990e+03,,,,,,,